Weather History for Orangeburg, SC

Change the Weather History Date:

Wednesday, December 19, 2012

  Actual Average Record
Temperature  
Mean Temperature 53 °F 47 °F  
Max Temperature 70 °F 58 °F 79 °F (1967)
Min Temperature 35 °F 36 °F 16 °F (1963)
Degree Days  
Heating Degree Days 12 18  
Month to date heating degree days 151 307  
Since 1 July heating degree days 601 676  
Cooling Degree Days 0 0  
Month to date cooling degree days 2 0  
Year to date cooling degree days 2322 2102  
Growing Degree Days 2 (Base 50)    
Moisture  
Dew Point 37 °F    
Average Humidity 64    
Maximum Humidity 92    
Minimum Humidity 31    
Precipitation  
Precipitation 0.00 in 0.11 in 1.71 in (1999)
Month to date precipitation 1.55 2.14  
Year to date precipitation 39.85 45.55  
Sea Level Pressure  
Sea Level Pressure 30.07 in    
Wind  
Wind Speed 3 mph (West)    
Max Wind Speed 15 mph    
Max Gust Speed 20 mph    
Visibility 10 miles    
Events      
T = Trace of Precipitation, MM = Missing Value Source: NWS Daily Summary

Daily Weather History Graph

Daily Weather History Graph

Search for Another Location

Airport:

Trip Planner

Search our weather history database for the weather conditions in past years. The results will help you decide how hot, cold, wet, or windy it might be!

Date:

Astronomy

Dec. 19, 2012 Rise Set
Actual Time 7:22 AM EST 5:18 PM EST
Civil Twilight 6:55 AM EST 5:46 PM EST
Nautical Twilight 6:24 AM EST 6:17 PM EST
Astronomical Twilight 5:53 AM EST 6:47 PM EST
Moon 11:50 AM EST (12/19) No Moon Set
Length of Visible Light 10h 51m
Length of Day
9h 56m
Waxing Crescent, 45% of the Moon is Illuminated
Dec 19
Waxing Crescent
Dec 20
First Quarter
Dec 28
Full
Jan 4
Last Quarter
Jan 11
New

Hourly Weather History & Observations

Time (EST) Temp. Windchill Dew Point Humidity Pressure Visibility Wind Dir Wind Speed Gust Speed Precip Events Conditions
12:53 AM 39.9 °F - 34.0 °F 79% 30.01 in 10.0 mi Calm Calm - N/A   Clear
1:53 AM 39.0 °F - 34.0 °F 82% 30.01 in 10.0 mi Calm Calm - N/A   Clear
2:53 AM 41.0 °F - 34.0 °F 76% 30.02 in 10.0 mi Calm Calm - N/A   Clear
3:53 AM 37.9 °F - 33.1 °F 83% 30.02 in 10.0 mi Calm Calm - N/A   Clear
4:53 AM 37.0 °F - 34.0 °F 89% 30.03 in 10.0 mi Calm Calm - N/A   Clear
5:53 AM 36.0 °F - 33.1 °F 89% 30.04 in 10.0 mi Calm Calm - N/A   Clear
6:53 AM 35.1 °F 32.2 °F 32.0 °F 89% 30.06 in 10.0 mi SW 3.5 mph - N/A   Clear
7:53 AM 36.0 °F - 33.1 °F 89% 30.08 in 10.0 mi Calm Calm - N/A   Clear
8:53 AM 48.0 °F - 37.0 °F 66% 30.09 in 10.0 mi Calm Calm - N/A   Clear
9:53 AM 55.9 °F - 37.0 °F 49% 30.10 in 10.0 mi West 8.1 mph - N/A   Clear
10:53 AM 63.0 °F - 37.9 °F 40% 30.11 in 10.0 mi WNW 8.1 mph - N/A   Clear
11:53 AM 66.0 °F - 37.0 °F 34% 30.09 in 10.0 mi West 13.8 mph 18.4 mph N/A   Clear
12:53 PM 68.0 °F - 37.9 °F 33% 30.06 in 10.0 mi West 10.4 mph - N/A   Clear
1:53 PM 70.0 °F - 39.0 °F 32% 30.05 in 10.0 mi West 13.8 mph - N/A   Clear
2:53 PM 70.0 °F - 39.0 °F 32% 30.04 in 10.0 mi WSW 6.9 mph - N/A   Clear
3:53 PM 69.1 °F - 37.9 °F 32% 30.04 in 10.0 mi SW 10.4 mph - N/A   Clear
4:53 PM 64.9 °F - 39.9 °F 40% 30.05 in 10.0 mi WSW 5.8 mph - N/A   Clear
5:53 PM 59.0 °F - 41.0 °F 51% 30.06 in 10.0 mi Calm Calm - N/A   Clear
6:53 PM 54.0 °F - 41.0 °F 62% 30.08 in 10.0 mi Calm Calm - N/A   Clear
7:53 PM 51.1 °F - 42.1 °F 71% 30.09 in 10.0 mi Calm Calm - N/A   Clear
8:53 PM 48.9 °F - 41.0 °F 74% 30.10 in 10.0 mi Calm Calm - N/A   Clear
9:53 PM 46.9 °F - 41.0 °F 80% 30.10 in 9.0 mi Calm Calm - N/A   Clear
10:53 PM 46.0 °F - 41.0 °F 83% 30.12 in 9.0 mi Calm Calm - N/A   Clear
11:53 PM 45.0 °F - 41.0 °F 86% 30.12 in 9.0 mi Calm Calm - N/A   Clear